Hilo, HI

11:06 PM HST on September 24, 2017 (GMT -1000)
Hilo International

Weather History for PHTO - April, 2012

Change the Weather History Date:

Thursday, April 5, 2012

  Actual Average Record
Temperature  
Mean Temperature 72 °F 72 °F  
Max Temperature 79 °F 79 °F 87 °F (2016)
Min Temperature 65 °F 65 °F 58 °F (2008)
Degree Days  
Heating Degree Days 0 0  
Month to date heating degree days 0 0  
Since 1 July heating degree days 0 0  
Cooling Degree Days 7 7  
Month to date cooling degree days 37 35  
Year to date cooling degree days 657 616  
Growing Degree Days 22 (Base 50)    
Moisture  
Dew Point 64 °F    
Average Humidity 76    
Maximum Humidity 93    
Minimum Humidity 58    
Precipitation  
Precipitation T in 0.43 in 5.96 in (1965)
Month to date precipitation 0.82 2.20  
Year to date precipitation 32.01 34.45  
Snow  
Snow 0.00 in - - ()
Month to date snowfall 0.0  
Since 1 July snowfall 0.0  
Snow Depth 0.00 in    
Sea Level Pressure  
Sea Level Pressure 30.04 in    
Wind  
Wind Speed 3 mph (ESE)    
Max Wind Speed 12 mph    
Max Gust Speed 15 mph    
Visibility 10 miles    
Events Rain    
T = Trace of Precipitation, MM = Missing Value Source: NWS Daily Summary

Daily Weather History Graph

Daily Weather History Graph

Search for Another Location

Airport or City:

Trip Planner

Search our weather history database for the weather conditions in past years. The results will help you decide how hot, cold, wet, or windy it might be!

Date:

Astronomy

Apr. 05, 2012 Rise Set
Actual Time 6:09 AM HST 6:35 PM HST
Civil Twilight 5:47 AM HST 6:57 PM HST
Nautical Twilight 5:21 AM HST 7:23 PM HST
Astronomical Twilight 4:55 AM HST 7:49 PM HST
Moon 5:53 PM HST (4/5) 5:08 AM HST (4/5)
Length of Visible Light 13h 10m
Length of Day
12h 25m
Waxing Gibbous, 99% of the Moon is Illuminated
Apr 5
Waxing Gibbous
Apr 6
Full
Apr 13
Last Quarter
Apr 20
New
Apr 28
First Quarter

Hourly Weather History & Observations

Time (HST) Temp. Dew Point Humidity Pressure Visibility Wind Dir Wind Speed Gust Speed Precip Events Conditions
12:00 AM 68.0 °F 66.2 °F 94% 30.07 in 10.0 mi WSW 5.8 mph - N/A   Overcast
12:40 AM 69.8 °F 66.2 °F 88% 30.05 in 10.0 mi Calm Calm - 0.00 in   Overcast
12:53 AM 68.0 °F 66.0 °F 93% 30.04 in 10.0 mi Calm Calm - 0.00 in   Overcast
1:53 AM 68.0 °F 66.0 °F 93% 30.04 in 10.0 mi Calm Calm - N/A   Overcast
2:53 AM 66.9 °F 64.9 °F 93% 30.01 in 9.0 mi Calm Calm - N/A   Scattered Clouds
3:53 AM 66.9 °F 64.9 °F 93% 30.01 in 10.0 mi Calm Calm - N/A   Overcast
4:53 AM 66.9 °F 64.0 °F 90% 30.01 in 10.0 mi Calm Calm - N/A   Mostly Cloudy
5:53 AM 66.0 °F 64.0 °F 93% 30.03 in 10.0 mi Calm Calm - N/A   Mostly Cloudy
6:53 AM 66.9 °F 64.0 °F 90% 30.04 in 10.0 mi Calm Calm - N/A   Partly Cloudy
7:53 AM 71.1 °F 66.0 °F 84% 30.05 in 10.0 mi Calm Calm - N/A   Partly Cloudy
8:53 AM 73.0 °F 63.0 °F 71% 30.06 in 10.0 mi Calm Calm - N/A   Partly Cloudy
9:53 AM 73.9 °F 63.0 °F 68% 30.06 in 10.0 mi NNE 5.8 mph - N/A   Mostly Cloudy
10:53 AM 78.1 °F 64.0 °F 62% 30.06 in 10.0 mi NE 8.1 mph - N/A   Mostly Cloudy
11:53 AM 79.0 °F 62.1 °F 56% 30.04 in 10.0 mi NE 10.4 mph - N/A   Mostly Cloudy
12:53 PM 78.1 °F 62.1 °F 58% 30.02 in 10.0 mi NE 6.9 mph - N/A   Overcast
1:53 PM 78.1 °F 63.0 °F 60% 30.00 in 10.0 mi ENE 6.9 mph - N/A   Overcast
2:53 PM 77.0 °F 62.1 °F 60% 29.99 in 10.0 mi SE 8.1 mph - N/A   Overcast
3:53 PM 75.0 °F 63.0 °F 66% 29.98 in 10.0 mi ESE 9.2 mph - N/A   Overcast
4:53 PM 73.9 °F 63.0 °F 68% 29.99 in 10.0 mi East 5.8 mph - N/A   Partly Cloudy
5:53 PM 73.0 °F 63.0 °F 71% 30.00 in 10.0 mi East 3.5 mph - N/A   Clear
6:53 PM 72.0 °F 64.0 °F 76% 30.03 in 10.0 mi Calm Calm - N/A   Clear
7:53 PM 71.1 °F 64.9 °F 81% 30.05 in 10.0 mi Calm Calm - N/A   Scattered Clouds
8:35 PM 69.8 °F 62.6 °F 78% 30.08 in 2.0 mi Calm Calm - 0.07 in Rain Rain
8:44 PM 69.8 °F 64.4 °F 83% 30.08 in 9.0 mi South 5.8 mph - 0.09 in Rain Light Rain
8:53 PM 69.1 °F 64.9 °F 87% 30.07 in 10.0 mi SSW 3.5 mph - 0.09 in   Overcast
9:12 PM 68.0 °F 64.4 °F 88% 30.09 in 10.0 mi West 4.6 mph - N/A   Mostly Cloudy
9:53 PM 68.0 °F 64.0 °F 87% 30.09 in 10.0 mi West 4.6 mph - N/A   Partly Cloudy
10:31 PM 68.0 °F 62.6 °F 83% 30.09 in 10.0 mi South 3.5 mph - N/A   Mostly Cloudy
10:53 PM 66.9 °F 63.0 °F 87% 30.07 in 10.0 mi Calm Calm - 0.00 in   Mostly Cloudy
11:53 PM 64.9 °F 61.0 °F 87% 30.06 in 10.0 mi WSW 6.9 mph - N/A   Clear